Theta_e
292 294 293 294 295 296 296 296 297 297 297 297 297 296 297 297 297 297 297 297 296 296 296 296 296 296 296 296 296 296 297 297 297 297 298 299 300 300 299 299 299 301 302
292 293 293 294 295 296 296 296 296 296 296 297 296 296 296 296 296 297 297 297 297 297 297 297 296 296 296 296 296 296 296 296 297 297 297 296 298 299 299 300 300 301 300
293 292 293 294 295 296 296 295 296 295 295 296 296 297 297 297 297 297 297 297 296 297 297 297 297 297 296 295 296 296 295 295 296 297 298 296 297 296 299 300 300 300 300
292 292 293 294 295 295 295 294 294 294 295 295 296 297 297 297 297 297 297 297 297 297 297 297 297 297 297 296 296 296 296 296 296 297 298 299 297 296 296 298 299 299 299
291 291 292 294 295 295 294 293 293 293 294 295 295 296 297 298 297 297 296 296 296 296 297 297 297 297 297 296 296 296 296 296 296 297 297 298 298 297 295 295 295 298 299
291 292 293 295 295 295 293 292 292 293 294 294 295 296 296 297 297 297 296 296 295 296 296 296 297 297 296 297 297 296 296 296 296 296 297 297 297 296 295 294 294 295 299
291 291 293 295 295 294 293 292 292 293 293 293 294 295 295 296 297 296 296 295 295 295 296 296 297 297 296 297 297 297 296 296 296 296 296 297 297 297 298 297 294 294 297
291 291 293 295 294 293 292 292 292 292 293 293 294 294 294 296 297 295 295 295 295 296 296 297 298 298 296 296 297 296 297 296 296 297 297 297 297 297 298 298 296 294 294
291 291 294 294 294 293 292 292 292 292 293 294 293 293 294 295 295 295 294 295 295 297 297 296 296 296 295 296 296 296 298 297 297 297 296 296 296 296 296 297 298 296 295
290 291 294 294 293 293 292 292 293 293 293 294 293 292 293 295 295 294 294 294 295 297 297 296 295 295 296 296 296 295 297 298 298 297 297 297 297 296 296 297 297 298 296
290 291 294 294 292 292 292 292 293 292 293 293 293 292 292 294 295 294 293 293 294 296 298 297 296 296 296 295 296 296 297 297 298 298 298 298 297 297 297 297 297 297 297
290 291 293 294 292 292 292 292 292 292 293 293 292 291 292 292 293 294 293 293 293 296 296 297 297 296 296 296 295 296 297 297 297 297 297 297 298 297 297 297 297 297 297
290 292 293 293 291 292 292 292 292 292 293 292 292 291 291 291 291 293 292 292 293 294 295 295 294 296 298 297 296 296 296 296 296 297 296 297 296 297 297 297 297 297 297
290 292 293 293 291 292 292 292 292 292 293 292 291 290 291 290 291 291 291 291 292 293 294 295 295 294 295 296 297 297 296 297 297 297 297 296 296 296 296 296 296 297 296
290 293 293 293 292 292 291 292 292 292 292 291 291 290 290 290 290 290 290 290 291 292 293 294 295 295 295 299 299 297 297 296 296 296 297 297 296 297 297 296 297 297 297
290 293 293 293 292 292 292 292 292 292 292 291 291 290 290 290 290 290 290 290 290 290 292 293 295 296 296 298 301 299 299 297 296 296 296 296 297 297 299 299 299 297 297
290 292 292 292 292 292 291 292 292 292 292 291 291 291 291 290 290 290 290 290 290 290 290 291 293 295 296 295 295 298 299 295 295 296 297 297 297 297 298 298 298 298 299
291 291 292 292 292 292 291 292 292 292 292 291 291 291 291 291 291 291 290 290 290 290 289 289 291 294 295 295 294 293 292 292 292 292 292 294 296 297 297 296 295 295 295
292 291 291 291 291 291 291 292 292 292 292 291 291 291 291 291 292 291 291 291 291 290 289 289 289 292 294 294 294 292 293 293 294 293 292 292 292 292 292 292 290 291 291
292 291 291 291 291 291 291 292 292 292 292 291 291 291 292 292 292 292 291 291 291 291 290 289 289 290 292 294 293 292 291 292 292 293 295 295 293 292 291 290 290 289 289
291 291 291 291 291 291 291 292 292 293 292 291 291 291 291 292 292 292 292 291 291 291 291 291 289 289 290 292 293 292 291 290 290 290 292 294 294 294 293 291 290 289 289
291 290 290 291 291 291 291 292 292 293 292 291 291 290 290 292 292 291 293 292 291 291 291 290 291 290 289 291 291 291 291 290 290 290 290 291 292 293 292 291 292 290 289
290 290 290 291 291 291 291 291 292 293 292 291 291 290 290 291 292 291 293 293 291 290 291 291 291 291 291 289 289 290 290 289 289 290 290 290 289 289 289 290 289 289 289
290 289 290 290 291 291 291 291 292 293 292 291 290 290 289 290 291 292 292 293 292 291 290 291 291 292 291 291 290 289 288 288 288 288 288 288 288 288 287 287 287 287 287
290 289 289 290 290 291 291 291 292 292 292 291 290 290 289 289 289 290 291 292 293 293 292 291 291 291 291 291 291 290 290 289 289 288 287 287 287 287 287 287 287 287 287
290 289 289 290 290 291 291 291 292 292 292 291 290 290 289 289 289 289 290 290 291 292 292 292 291 291 291 291 290 290 290 289 288 287 286 286 286 286 286 286 287 287 287
Wind_Speed
22 24 28 28 29 28 28 26 30 31 31 29 29 30 29 30 28 28 29 29 29 27 26 27 29 26 26 28 27 25 26 28 26 21 22 25 22 20 19 17 17 20 17
15 26 29 27 31 30 28 27 28 31 31 30 32 29 30 30 30 30 27 28 27 28 28 26 25 23 26 26 26 28 24 25 26 14 6 3 8 20 20 18 17 16 13
17 23 29 28 32 31 30 30 30 35 32 32 32 30 30 26 26 27 28 25 29 30 30 30 28 26 25 25 24 27 26 18 22 27 11 2 5 1 11 19 19 19 15
16 24 28 32 32 32 30 31 31 35 31 34 32 33 30 27 30 29 28 28 28 30 30 30 29 27 26 25 24 24 26 24 17 13 23 20 2 3 1 8 16 17 18
17 20 27 33 31 31 30 32 31 33 33 34 34 33 31 29 31 32 29 28 27 26 28 29 28 26 24 23 23 22 21 25 21 18 10 10 10 11 3 3 3 13 16
19 25 28 30 31 30 30 32 32 34 35 36 36 34 35 35 34 31 30 28 28 25 26 27 27 27 25 23 23 23 19 21 25 26 25 18 6 4 3 2 2 5 15
18 22 29 32 32 32 35 35 34 34 36 38 37 36 36 36 32 32 30 31 26 26 27 31 29 24 22 21 20 19 21 21 23 23 22 23 24 21 15 9 2 4 12
17 20 27 30 30 31 34 34 34 34 36 37 37 36 35 33 32 33 31 29 27 26 28 25 22 13 13 14 17 20 16 17 21 26 25 24 22 20 20 15 8 2 2
18 20 28 30 30 30 34 34 34 32 35 36 36 34 34 34 35 34 33 31 31 23 21 20 15 10 8 10 11 12 15 17 16 18 18 21 22 23 24 25 22 8 4
19 22 28 31 31 30 33 32 32 34 35 35 36 34 35 34 34 33 33 33 33 27 22 19 14 11 9 9 11 12 16 14 16 14 14 13 13 17 20 18 19 20 11
20 20 29 29 29 30 32 33 34 35 35 36 36 35 34 34 30 34 35 34 33 33 23 18 14 11 10 9 8 8 11 9 11 12 14 15 14 8 6 9 11 14 17
17 23 28 28 29 30 33 34 35 34 35 34 33 33 33 35 34 34 36 36 35 30 32 23 18 14 12 9 8 8 8 8 12 10 13 14 12 16 18 14 12 7 9
18 21 26 26 29 30 32 33 35 35 35 33 33 33 33 34 33 33 35 35 36 36 31 29 26 20 14 11 10 8 9 10 12 14 13 17 14 11 13 21 23 20 20
18 17 23 25 29 30 32 33 34 35 35 33 32 32 33 34 34 33 35 34 34 35 31 33 26 25 16 14 14 12 10 10 10 12 14 12 12 14 16 19 19 19 21
18 16 19 25 30 30 32 33 35 34 35 31 31 31 32 33 33 33 33 33 34 35 37 34 32 28 24 24 11 12 10 7 8 9 7 12 11 12 15 17 19 20 19
18 17 24 25 27 29 30 33 34 33 34 30 30 30 31 33 33 33 33 34 34 34 35 37 32 34 32 32 3 8 12 8 3 5 6 8 13 14 15 16 20 22 22
16 17 22 24 26 29 30 32 33 32 31 29 29 30 30 32 33 33 33 33 34 34 34 36 38 33 39 39 36 24 6 11 3 5 3 6 8 11 13 7 7 10 10
14 21 22 23 25 27 29 29 31 31 29 29 29 31 31 31 32 34 35 33 32 32 32 35 38 32 39 41 40 34 31 29 27 22 16 12 9 2 5 2 4 6 5
17 21 23 23 25 27 29 27 28 30 28 29 30 29 30 29 33 33 33 34 29 32 32 34 38 37 34 38 36 35 30 28 23 22 23 22 21 14 12 15 18 18 16
20 21 22 21 24 27 29 25 26 29 28 28 26 26 29 32 32 31 29 28 26 28 30 34 37 34 33 35 34 34 29 27 27 30 22 25 24 24 23 26 23 21 20
20 22 22 19 23 27 28 24 26 28 29 25 23 23 25 28 27 27 30 27 24 26 28 27 30 34 32 33 32 30 31 26 24 29 24 25 26 25 23 23 22 19 19
21 22 22 21 23 26 26 25 27 31 27 24 24 24 24 24 25 25 27 29 27 24 27 27 27 29 32 29 29 28 28 28 26 25 29 27 28 27 24 24 22 20 22
20 20 20 20 22 27 25 24 28 31 27 24 24 23 21 20 24 24 25 24 26 24 24 24 25 25 27 31 27 27 27 24 25 24 23 24 25 24 26 24 22 22 23
18 21 20 20 21 26 26 25 26 28 26 24 23 22 21 18 19 24 22 23 25 23 23 22 22 21 24 25 30 29 28 24 27 25 22 23 23 24 25 27 24 22 20
16 19 17 19 21 25 26 25 29 27 26 24 23 22 20 19 18 17 19 22 25 26 22 25 22 20 22 26 24 24 24 23 21 25 27 28 27 27 26 25 23 21 21
16 18 18 20 22 23 25 25 29 27 25 23 23 20 19 19 18 19 18 15 17 22 24 24 23 21 21 20 21 23 23 21 21 23 21 21 22 22 23 23 22 21 19
Wind_Direction
321 341 347 344 343 341 341 341 345 342 341 338 335 330 323 319 313 308 305 299 294 289 286 283 289 289 276 276 273 262 258 266 266 268 276 258 237 234 241 253 268 270 268
333 346 347 346 346 342 342 338 345 342 339 335 330 322 319 316 309 304 300 304 297 292 287 278 276 270 274 277 268 263 250 250 255 232 221 240 239 235 236 245 258 251 258
339 342 344 346 347 347 346 344 346 343 341 334 330 325 318 317 316 314 302 302 302 295 289 283 276 267 265 264 265 260 250 242 239 232 205 179 216 129 229 240 239 247 252
340 341 343 346 347 348 347 346 344 341 339 335 331 328 320 319 325 318 314 305 301 293 291 282 276 270 262 256 261 254 254 253 222 211 219 234 216 166 202 224 225 232 250
343 341 344 345 344 347 349 348 345 339 341 336 335 331 328 324 330 330 324 323 313 308 293 285 278 269 266 250 256 255 245 246 235 237 225 223 239 237 152 210 254 224 229
342 344 345 347 343 351 349 348 349 346 344 341 339 336 334 331 330 325 324 321 320 312 306 298 285 270 264 256 253 246 239 241 248 247 245 230 196 190 187 149 192 199 238
342 344 348 348 348 352 352 350 350 345 344 340 339 336 334 332 334 335 331 325 318 316 313 311 288 264 256 260 256 256 228 235 247 241 233 235 231 228 233 219 178 208 237
344 345 347 346 348 352 350 349 347 349 347 343 342 340 338 337 343 340 337 333 326 321 327 342 355 264 264 269 265 242 242 230 237 248 250 244 235 227 224 226 194 233 225
344 344 351 349 350 352 351 350 348 350 349 342 344 342 343 343 349 346 345 344 344 338 345 349 345 330 308 291 286 274 226 230 234 245 250 244 243 242 242 236 220 186 184
345 344 353 352 352 350 350 351 348 345 344 347 347 346 344 346 353 350 350 349 349 349 354 352 351 346 333 302 299 260 262 229 229 227 224 233 233 232 231 227 222 222 206
343 342 349 348 352 350 351 348 348 348 351 351 347 348 347 350 352 357 356 353 354 358 349 355 348 342 331 319 308 310 253 266 236 225 222 226 225 216 192 194 210 219 222
340 342 346 348 350 353 351 348 346 351 350 351 349 350 353 354 354 358 359 0 358 4 9 355 348 339 332 324 316 299 275 274 231 244 230 243 229 237 237 248 243 221 212
341 344 349 352 352 354 351 349 345 348 351 353 354 355 359 355 357 0 1 1 3 4 5 7 3 345 324 310 299 282 269 249 245 240 243 248 236 239 232 233 245 247 244
343 345 348 349 355 353 351 349 344 345 350 353 355 358 359 358 360 1 5 6 5 7 355 4 354 354 339 320 281 264 258 252 246 237 237 243 245 238 246 248 247 250 244
343 348 347 347 353 350 353 347 342 346 351 354 357 358 1 6 4 3 3 5 8 9 6 5 5 5 359 334 235 234 243 258 250 252 255 250 249 244 242 244 246 239 237
342 347 344 344 348 347 349 344 341 345 351 355 356 358 3 7 7 8 7 7 6 7 9 5 8 17 20 18 204 226 245 207 251 289 275 276 257 258 269 259 242 238 234
344 345 342 341 345 344 346 341 340 345 352 356 358 2 4 8 9 10 8 7 9 10 10 10 13 20 30 37 44 51 94 79 24 328 320 281 280 265 270 268 23 55 229
345 342 337 340 346 343 344 342 346 348 353 358 360 9 8 7 12 12 10 9 9 11 11 13 14 18 36 39 43 46 55 58 54 48 42 33 18 305 227 202 79 70 29
346 340 335 341 348 345 346 347 349 351 357 359 5 11 14 6 14 12 11 14 12 18 18 20 22 18 32 41 41 38 40 41 46 55 54 55 54 55 78 96 89 86 77
349 344 340 347 353 348 352 350 350 352 354 2 5 12 19 16 10 13 11 15 20 22 25 26 29 28 26 40 43 39 36 35 34 36 45 61 65 67 77 79 75 71 71
350 346 345 351 354 352 348 352 348 349 356 1 3 9 15 18 14 12 16 18 23 25 27 28 31 38 30 31 39 43 41 37 40 38 34 52 54 61 68 71 74 75 84
353 351 345 346 357 358 350 350 341 348 357 1 5 13 20 25 22 13 22 24 23 26 27 29 31 33 40 37 38 41 43 41 40 41 45 45 49 56 57 60 66 69 79
353 350 347 344 360 360 355 348 349 350 359 3 6 15 24 26 27 24 26 27 26 25 24 25 26 24 31 41 39 42 44 47 45 47 50 52 53 56 58 58 60 72 75
357 349 347 348 352 2 356 354 353 356 2 4 4 15 22 22 29 36 22 26 29 30 26 20 21 23 32 36 38 41 48 48 59 60 53 55 58 59 63 63 61 61 59
354 353 348 347 347 2 359 359 360 353 359 9 8 14 24 27 29 36 30 23 33 37 36 37 24 29 32 38 42 43 41 44 49 63 59 54 52 52 54 55 55 56 59
357 353 351 354 351 2 3 357 360 359 360 4 7 8 21 28 30 33 40 41 35 37 41 42 41 39 43 44 44 47 45 45 48 52 39 37 40 41 46 47 47 46 47